Location: Engelmannsreuth
(49.8125°N, 11.6497°E)
Time: 16:40:01
(UTC+00:00)

BREEZE M DEB (TANK) - Pass Details

Date: 17 February 2020
Orbit: 315 x 13667 km, 49.6° (Epoch: 29 March)

Event Time Altitude Azimuth Distance (km) Brightness Sun altitude
Exits shadow 04:05:12 84° 103° (ESE) 522 2.6 -22.5°
Drops below altitude 10° 04:10:50 10° 91° (E) 3,031 7.7 -21.6°
Sets 04:15:45 0° 92° (E) 5,306 9.3 -20.8°
